| time (UTC) | temp C | wind direction | speed KPH | gust KPH | rain 1hr cm | rain 24hr cm | rain mn cm | humidity % | barometer mb |
| 20260507174936 | 12 | 0.0 | 0.0 | 0.00 | 0.00 | 0.00 | 65 | 1016.6 | |
| 20260507174436 | 12 | 0.0 | 0.0 | 0.00 | 0.00 | 0.00 | 65 | 1016.5 | |
| 20260507173935 | 12 | 0.0 | 0.0 | 0.00 | 0.00 | 0.00 | 64 | 1016.5 | |
| 20260507173435 | 12 | 0.0 | 0.0 | 0.00 | 0.00 | 0.00 | 64 | 1016.4 | |
| 20260507172934 | 12 | 0.0 | 0.0 | 0.00 | 0.00 | 0.00 | 65 | 1016.3 | |
| 20260507172434 | 12 | 0.0 | 0.0 | 0.00 | 0.00 | 0.00 | 65 | 1016.3 | |
| 20260507171934 | 12 | 0.0 | 0.0 | 0.00 | 0.00 | 0.00 | 64 | 1016.2 | |
| 20260507171433 | 12 | 0.0 | 0.0 | 0.00 | 0.00 | 0.00 | 64 | 1016.2 | |
| 20260507170933 | 12 | 0.0 | 0.0 | 0.00 | 0.00 | 0.00 | 65 | 1016.2 | |
| 20260507170432 | 12 | 0.0 | 0.0 | 0.00 | 0.00 | 0.00 | 65 | 1016.2 | |
| 20260507165931 | 12 | 0.0 | 0.0 | 0.00 | 0.00 | 0.00 | 64 | 1016.2 | |
| 20260507165431 | 12 | 0.0 | 0.0 | 0.00 | 0.00 | 0.00 | 66 | 1016.3 | |
| 20260507164930 | 12 | 0.0 | 0.0 | 0.00 | 0.00 | 0.00 | 65 | 1016.2 | |
| 20260507164431 | 12 | 0.0 | 0.0 | 0.00 | 0.00 | 0.00 | 65 | 1016.2 | |
| 20260507163930 | 12 | 0.0 | 0.0 | 0.00 | 0.00 | 0.00 | 64 | 1016.1 | |
| 20260507163430 | 12 | 0.0 | 0.0 | 0.00 | 0.00 | 0.00 | 65 | 1016.2 | |
| 20260507162929 | 12 | 0.0 | 0.0 | 0.00 | 0.00 | 0.00 | 65 | 1016.1 | |
| 20260507162429 | 12 | 0.0 | 0.0 | 0.00 | 0.00 | 0.00 | 65 | 1016.1 | |
| 20260507161928 | 13 | 0.0 | 0.0 | 0.00 | 0.00 | 0.00 | 63 | 1016.1 | |
| 20260507161428 | 13 | 0.0 | 0.0 | 0.00 | 0.00 | 0.00 | 63 | 1016.0 | |
| 20260507160927 | 13 | 0.0 | 0.0 | 0.00 | 0.00 | 0.00 | 65 | 1016.0 | |
| 20260507160427 | 12 | 0.0 | 0.0 | 0.00 | 0.00 | 0.00 | 67 | 1016.0 | |
| 20260507155926 | 12 | 0.0 | 0.0 | 0.00 | 0.00 | 0.00 | 69 | 1016.0 | |
| 20260507155426 | 12 | 0.0 | 0.0 | 0.00 | 0.00 | 0.00 | 67 | 1016.0 | |
| 20260507152014 | 12 | 0.0 | 0.0 | 0.00 | 0.00 | 0.00 | 67 | 1015.9 | |
| 20260507151513 | 12 | 0.0 | 0.0 | 0.00 | 0.00 | 0.00 | 67 | 1015.9 | |
| 20260507151013 | 12 | 0.0 | 0.0 | 0.00 | 0.00 | 0.00 | 66 | 1016.0 | |
| 20260507150512 | 12 | 0.0 | 0.0 | 0.00 | 0.00 | 0.00 | 67 | 1016.0 | |
| 20260507150012 | 12 | 0.0 | 0.0 | 0.00 | 0.00 | 0.00 | 65 | 1016.0 | |
| 20260507145511 | 12 | 0.0 | 0.0 | 0.00 | 0.00 | 0.00 | 63 | 1016.0 | |
| 20260507145011 | 13 | 0.0 | 0.0 | 0.00 | 0.00 | 0.00 | 65 | 1015.9 | |
| 20260507144511 | 12 | 0.0 | 0.0 | 0.00 | 0.00 | 0.00 | 67 | 1016.0 | |
| 20260507144010 | 12 | 0.0 | 0.0 | 0.00 | 0.00 | 0.00 | 67 | 1016.0 | |
| 20260507143509 | 12 | 0.0 | 0.0 | 0.00 | 0.00 | 0.00 | 66 | 1015.8 | |
| 20260507143009 | 12 | 0.0 | 0.0 | 0.00 | 0.00 | 0.00 | 66 | 1015.9 | |
| 20260507142509 | 12 | 0.0 | 0.0 | 0.00 | 0.00 | 0.00 | 70 | 1015.9 | |
| 20260507142008 | 11 | 0.0 | 0.0 | 0.00 | 0.00 | 0.00 | 70 | 1015.9 | |
| 20260507141508 | 12 | 0.0 | 0.0 | 0.00 | 0.00 | 0.00 | 69 | 1016.0 | |
| 20260507141008 | 12 | 0.0 | 0.0 | 0.00 | 0.00 | 0.00 | 68 | 1015.9 | |
| 20260507140507 | 12 | 0.0 | 0.0 | 0.00 | 0.00 | 0.00 | 69 | 1015.9 | |
| 20260507140007 | 12 | 0.0 | 0.0 | 0.00 | 0.00 | 0.00 | 67 | 1015.9 | |
| 20260507135507 | 12 | 0.0 | 0.0 | 0.00 | 0.00 | 0.00 | 67 | 1015.9 | |
| 20260507135006 | 12 | 0.0 | 0.0 | 0.00 | 0.00 | 0.00 | 67 | 1015.8 | |
| 20260507134506 | 12 | 0.0 | 0.0 | 0.00 | 0.00 | 0.00 | 68 | 1015.8 | |
| 20260507134005 | 13 | 0.0 | 0.0 | 0.00 | 0.00 | 0.00 | 69 | 1015.8 | |
| 20260507133505 | 13 | 0.0 | 0.0 | 0.00 | 0.00 | 0.00 | 66 | 1015.7 | |
| 20260507133005 | 13 | 0.0 | 0.0 | 0.00 | 0.00 | 0.00 | 69 | 1015.8 | |
| 20260507132504 | 13 | 0.0 | 0.0 | 0.00 | 0.00 | 0.00 | 70 | 1015.8 | |
| 20260507132004 | 12 | 0.0 | 0.0 | 0.00 | 0.00 | 0.00 | 75 | 1015.9 | |
| 20260507131504 | 11 | 0.0 | 0.0 | 0.00 | 0.00 | 0.00 | 74 | 1015.9 | |
| 20260507131003 | 11 | 0.0 | 0.0 | 0.00 | 0.00 | 0.00 | 75 | 1015.8 | |
| 20260507130503 | 11 | 0.0 | 0.0 | 0.00 | 0.00 | 0.00 | 74 | 1015.8 | |
| 20260507130002 | 11 | 0.0 | 0.0 | 0.00 | 0.00 | 0.00 | 73 | 1015.9 | |
| 20260507125502 | 11 | 0.0 | 0.0 | 0.00 | 0.00 | 0.00 | 71 | 1015.8 | |
| 20260507125002 | 12 | 0.0 | 0.0 | 0.00 | 0.00 | 0.00 | 70 | 1015.8 | |
| 20260507124501 | 12 | 0.0 | 0.0 | 0.00 | 0.00 | 0.00 | 71 | 1015.7 | |
| 20260507124000 | 12 | 0.0 | 0.0 | 0.00 | 0.00 | 0.00 | 71 | 1015.7 | |
| 20260507123500 | 12 | 0.0 | 0.0 | 0.00 | 0.00 | 0.00 | 72 | 1015.6 | |
| 20260507123000 | 11 | 0.0 | 0.0 | 0.00 | 0.00 | 0.00 | 72 | 1015.6 | |
| 20260507122459 | 11 | 0.0 | 0.0 | 0.00 | 0.00 | 0.00 | 72 | 1015.5 | |
| 20260507121958 | 12 | 0.0 | 0.0 | 0.00 | 0.00 | 0.00 | 70 | 1015.5 | |
| 20260507121458 | 12 | 0.0 | 0.0 | 0.00 | 0.00 | 0.00 | 70 | 1015.4 | |
| 20260507120958 | 11 | 0.0 | 0.0 | 0.00 | 0.00 | 0.00 | 70 | 1015.4 | |
| 20260507120458 | 11 | 0.0 | 0.0 | 0.00 | 0.00 | 0.00 | 72 | 1015.3 | |
| 20260507115958 | 11 | 0.0 | 0.0 | 0.00 | 0.00 | 0.00 | 70 | 1015.3 | |
| 20260507115457 | 12 | 0.0 | 0.0 | 0.00 | 0.00 | 0.00 | 69 | 1015.3 | |
| 20260507114957 | 12 | 0.0 | 0.0 | 0.00 | 0.00 | 0.00 | 68 | 1015.3 | |
| 20260507114457 | 12 | 0.0 | 0.0 | 0.00 | 0.00 | 0.00 | 72 | 1015.2 | |
| 20260507113956 | 12 | 0.0 | 0.0 | 0.00 | 0.00 | 0.00 | 73 | 1015.2 | |
| 20260507113456 | 11 | 0.0 | 0.0 | 0.00 | 0.00 | 0.00 | 76 | 1015.3 | |
| 20260507112955 | 11 | 0.0 | 0.0 | 0.00 | 0.00 | 0.00 | 78 | 1015.2 | |
| 20260507112455 | 11 | 0.0 | 0.0 | 0.00 | 0.00 | 0.00 | 78 | 1015.2 | |
| 20260507111955 | 11 | 0.0 | 0.0 | 0.00 | 0.00 | 0.00 | 77 | 1015.1 | |
| 20260507111454 | 11 | 0.0 | 0.0 | 0.00 | 0.00 | 0.00 | 79 | 1015.1 | |
| 20260507110953 | 11 | 0.0 | 0.0 | 0.00 | 0.00 | 0.00 | 80 | 1015.0 | |
| 20260507110453 | 11 | 0.0 | 0.0 | 0.00 | 0.00 | 0.00 | 81 | 1014.9 | |
| 20260507105953 | 11 | 0.0 | 0.0 | 0.00 | 0.00 | 0.00 | 81 | 1015.0 | |
| 20260507105453 | 10 | 0.0 | 0.0 | 0.00 | 0.00 | 0.00 | 82 | 1015.0 | |
| 20260507104952 | 10 | 0.0 | 0.0 | 0.00 | 0.00 | 0.00 | 82 | 1014.9 | |
| 20260507104452 | 10 | 0.0 | 0.0 | 0.00 | 0.00 | 0.00 | 81 | 1015.0 | |
| 20260507103951 | 11 | 0.0 | 0.0 | 0.00 | 0.00 | 0.00 | 77 | 1014.9 | |
| 20260507103451 | 11 | 0.0 | 0.0 | 0.00 | 0.00 | 0.00 | 73 | 1014.9 | |
| 20260507102950 | 11 | 0.0 | 0.0 | 0.00 | 0.00 | 0.00 | 73 | 1014.8 | |
| 20260507102450 | 11 | 0.0 | 0.0 | 0.00 | 0.00 | 0.00 | 73 | 1014.8 | |
| 20260507101950 | 12 | 0.0 | 0.0 | 0.00 | 0.00 | 0.00 | 72 | 1014.7 | |
| 20260507101449 | 12 | 0.0 | 0.0 | 0.00 | 0.00 | 0.00 | 73 | 1014.8 | |
| 20260507100949 | 12 | 0.0 | 0.0 | 0.00 | 0.00 | 0.00 | 78 | 1014.7 | |
| 20260507100448 | 11 | 0.0 | 0.0 | 0.00 | 0.00 | 0.00 | 79 | 1014.7 | |
| 20260507095948 | 11 | 0.0 | 0.0 | 0.00 | 0.00 | 0.00 | 78 | 1014.8 | |
| 20260507095447 | 11 | 0.0 | 0.0 | 0.00 | 0.00 | 0.00 | 77 | 1014.8 | |
| 20260507094948 | 11 | 0.0 | 0.0 | 0.00 | 0.00 | 0.00 | 78 | 1014.8 | |
| 20260507094447 | 11 | 0.0 | 0.0 | 0.00 | 0.00 | 0.00 | 78 | 1014.7 | |
| 20260507093946 | 11 | 0.0 | 0.0 | 0.00 | 0.00 | 0.00 | 75 | 1014.7 | |
| 20260507093446 | 11 | 0.0 | 0.0 | 0.00 | 0.00 | 0.00 | 72 | 1014.6 | |
| 20260507092946 | 11 | 0.0 | 0.0 | 0.00 | 0.00 | 0.00 | 71 | 1014.5 | |
| 20260507092445 | 11 | 0.0 | 0.0 | 0.00 | 0.00 | 0.00 | 71 | 1014.5 | |
| 20260507091945 | 11 | 0.0 | 0.0 | 0.00 | 0.00 | 0.00 | 72 | 1014.5 | |
| 20260507091445 | 12 | 0.0 | 0.0 | 0.00 | 0.00 | 0.00 | 70 | 1014.4 | |
| 20260507090945 | 12 | 0.0 | 0.0 | 0.00 | 0.00 | 0.00 | 70 | 1014.2 | |
| 20260507090444 | 11 | 0.0 | 0.0 | 0.00 | 0.00 | 0.00 | 70 | 1014.3 | |
| 20260507085944 | 12 | 0.0 | 0.0 | 0.00 | 0.00 | 0.00 | 69 | 1014.2 | |
| 20260507085443 | 12 | 0.0 | 0.0 | 0.00 | 0.00 | 0.00 | 69 | 1014.2 | |
| 20260507084942 | 12 | 0.0 | 0.0 | 0.00 | 0.00 | 0.00 | 70 | 1014.1 | |
| 20260507084442 | 12 | 0.0 | 0.0 | 0.00 | 0.00 | 0.00 | 70 | 1014.2 | |
| 20260507083942 | 12 | 0.0 | 0.0 | 0.00 | 0.00 | 0.00 | 71 | 1014.2 | |
| 20260507083441 | 11 | 0.0 | 0.0 | 0.00 | 0.00 | 0.00 | 73 | 1014.1 | |
| 20260507082941 | 11 | 0.0 | 0.0 | 0.00 | 0.00 | 0.00 | 73 | 1014.1 | |
| 20260507082441 | 11 | 0.0 | 0.0 | 0.00 | 0.00 | 0.00 | 74 | 1014.0 | |
| 20260507081940 | 10 | 0.0 | 0.0 | 0.00 | 0.00 | 0.00 | 73 | 1013.9 | |
| 20260507081440 | 11 | 0.0 | 0.0 | 0.00 | 0.00 | 0.00 | 72 | 1013.9 | |
| 20260507080939 | 11 | 0.0 | 0.0 | 0.00 | 0.00 | 0.00 | 73 | 1014.0 | |
| 20260507080439 | 11 | 0.0 | 0.0 | 0.00 | 0.00 | 0.00 | 73 | 1013.8 | |
| 20260507075939 | 11 | 0.0 | 0.0 | 0.00 | 0.00 | 0.00 | 72 | 1013.7 | |
| 20260507075438 | 11 | 0.0 | 0.0 | 0.00 | 0.00 | 0.00 | 72 | 1013.6 | |
| 20260507074938 | 11 | 0.0 | 0.0 | 0.00 | 0.00 | 0.00 | 72 | 1013.6 | |
| 20260507074437 | 11 | 0.0 | 0.0 | 0.00 | 0.00 | 0.00 | 72 | 1013.6 | |
| 20260507073937 | 11 | 0.0 | 0.0 | 0.00 | 0.00 | 0.00 | 71 | 1013.6 | |
| 20260507073437 | 11 | 0.0 | 0.0 | 0.00 | 0.00 | 0.00 | 71 | 1013.5 | |
| 20260507072936 | 11 | 0.0 | 0.0 | 0.00 | 0.00 | 0.00 | 71 | 1013.4 | |
| 20260507072436 | 11 | 0.0 | 0.0 | 0.00 | 0.00 | 0.00 | 72 | 1013.3 | |
| 20260507071935 | 11 | 0.0 | 0.0 | 0.00 | 0.00 | 0.00 | 71 | 1013.2 | |
| 20260507071435 | 11 | 0.0 | 0.0 | 0.00 | 0.00 | 0.00 | 71 | 1013.2 | |
| 20260507070935 | 11 | 0.0 | 0.0 | 0.00 | 0.00 | 0.00 | 72 | 1013.2 | |
| 20260507070434 | 11 | 0.0 | 0.0 | 0.00 | 0.00 | 0.00 | 71 | 1013.1 | |
| 20260507065935 | 11 | 0.0 | 0.0 | 0.00 | 0.00 | 0.00 | 70 | 1013.1 | |
| 20260507065434 | 11 | 0.0 | 0.0 | 0.00 | 0.00 | 0.00 | 70 | 1013.0 | |
| 20260507064934 | 11 | 0.0 | 0.0 | 0.00 | 0.00 | 0.00 | 72 | 1013.1 | |
| 20260507064433 | 11 | 0.0 | 0.0 | 0.00 | 0.00 | 0.00 | 71 | 1013.0 | |
| 20260507063933 | 11 | 0.0 | 0.0 | 0.00 | 0.00 | 0.00 | 72 | 1013.0 | |
| 20260507063432 | 11 | 0.0 | 0.0 | 0.00 | 0.00 | 0.00 | 73 | 1013.0 | |
| 20260507062932 | 11 | 0.0 | 0.0 | 0.00 | 0.00 | 0.00 | 75 | 1013.0 | |
| 20260507062431 | 10 | 0.0 | 0.0 | 0.00 | 0.00 | 0.00 | 74 | 1013.0 | |
| 20260507061931 | 10 | 0.0 | 0.0 | 0.00 | 0.00 | 0.00 | 74 | 1012.9 | |
| 20260507061430 | 10 | 0.0 | 0.0 | 0.00 | 0.00 | 0.00 | 75 | 1012.9 | |
| 20260507060930 | 10 | 0.0 | 0.0 | 0.00 | 0.00 | 0.00 | 75 | 1012.9 | |
| 20260507060430 | 11 | 0.0 | 0.0 | 0.00 | 0.00 | 0.00 | 73 | 1012.7 | |
| 20260507055929 | 11 | 0.0 | 0.0 | 0.00 | 0.00 | 0.00 | 72 | 1012.7 | |
| 20260507055429 | 11 | 0.0 | 0.0 | 0.00 | 0.00 | 0.00 | 72 | 1012.6 | |
| 20260507054928 | 11 | 0.0 | 0.0 | 0.00 | 0.00 | 0.00 | 73 | 1012.5 | |
| 20260507054428 | 11 | 0.0 | 0.0 | 0.00 | 0.00 | 0.00 | 72 | 1012.5 | |
| 20260507053928 | 11 | 0.0 | 0.0 | 0.00 | 0.00 | 0.00 | 68 | 1012.5 | |
| 20260507053428 | 13 | 0.0 | 0.0 | 0.00 | 0.00 | 0.00 | 64 | 1012.5 | |
| 20260507052927 | 12 | 0.0 | 0.0 | 0.00 | 0.00 | 0.00 | 67 | 1012.4 | |
| 20260507052427 | 11 | 0.0 | 0.0 | 0.00 | 0.00 | 0.00 | 70 | 1012.4 | |
| 20260507051926 | 11 | 0.0 | 0.0 | 0.00 | 0.00 | 0.00 | 72 | 1012.3 | |
| 20260507051426 | 11 | 0.0 | 0.0 | 0.00 | 0.00 | 0.00 | 71 | 1012.3 | |
| 20260507050925 | 11 | 0.0 | 0.0 | 0.00 | 0.00 | 0.00 | 74 | 1012.2 | |
| 20260507050425 | 10 | 0.0 | 0.0 | 0.00 | 0.00 | 0.00 | 75 | 1012.2 | |
| 20260507045924 | 10 | 0.0 | 0.0 | 0.00 | 0.00 | 0.00 | 76 | 1012.1 | |
| 20260507045424 | 10 | 0.0 | 0.0 | 0.00 | 0.00 | 0.00 | 78 | 1012.0 | |
| 20260507044924 | 8 | 0.0 | 0.0 | 0.00 | 0.00 | 0.00 | 81 | 1011.9 | |
| 20260507044423 | 8 | 0.0 | 0.0 | 0.00 | 0.00 | 0.00 | 82 | 1012.0 | |
| 20260507043923 | 8 | 0.0 | 0.0 | 0.00 | 0.00 | 0.00 | 83 | 1011.9 | |
| 20260507043422 | 7 | 0.0 | 0.0 | 0.00 | 0.00 | 0.00 | 84 | 1012.0 | |
| 20260507042922 | 7 | 0.0 | 0.0 | 0.00 | 0.00 | 0.00 | 84 | 1011.9 | |
| 20260507042421 | 7 | 0.0 | 0.0 | 0.00 | 0.00 | 0.00 | 84 | 1011.8 | |
| 20260507041922 | 7 | 0.0 | 0.0 | 0.00 | 0.00 | 0.00 | 84 | 1011.7 | |
| 20260507041421 | 7 | 0.0 | 0.0 | 0.00 | 0.00 | 0.00 | 83 | 1011.6 | |
| 20260507040920 | 7 | 0.0 | 0.0 | 0.00 | 0.00 | 0.00 | 82 | 1011.7 | |
| 20260507040420 | 7 | 0.0 | 0.0 | 0.00 | 0.00 | 0.00 | 80 | 1011.6 | |
| 20260507035920 | 8 | 0.0 | 0.0 | 0.00 | 0.00 | 0.00 | 80 | 1011.6 | |
| 20260507035419 | 8 | 0.0 | 0.0 | 0.00 | 0.00 | 0.00 | 80 | 1011.6 | |
| 20260507034919 | 8 | 0.0 | 0.0 | 0.00 | 0.00 | 0.00 | 81 | 1011.5 | |
| 20260507034418 | 8 | 0.0 | 0.0 | 0.00 | 0.00 | 0.00 | 81 | 1011.5 | |
| 20260507033918 | 8 | 0.0 | 0.0 | 0.00 | 0.00 | 0.00 | 80 | 1011.4 | |
| 20260507033418 | 8 | 0.0 | 0.0 | 0.00 | 0.00 | 0.00 | 81 | 1011.4 | |
| 20260507032918 | 8 | 0.0 | 0.0 | 0.00 | 0.00 | 0.00 | 81 | 1011.3 | |
| 20260507032417 | 8 | 0.0 | 0.0 | 0.00 | 0.00 | 0.00 | 82 | 1011.4 | |
| 20260507031917 | 8 | 0.0 | 0.0 | 0.00 | 0.00 | 0.00 | 82 | 1011.3 | |
| 20260507031416 | 8 | 0.0 | 0.0 | 0.00 | 0.00 | 0.00 | 83 | 1011.4 | |
| 20260507030916 | 8 | 0.0 | 0.0 | 0.00 | 0.00 | 0.00 | 83 | 1011.3 | |
| 20260507030415 | 8 | 0.0 | 0.0 | 0.00 | 0.00 | 0.00 | 83 | 1011.2 | |
| 20260507025915 | 8 | 0.0 | 0.0 | 0.00 | 0.00 | 0.00 | 83 | 1011.1 | |
| 20260507025415 | 8 | 0.0 | 0.0 | 0.00 | 0.00 | 0.00 | 83 | 1011.2 | |
| 20260507024914 | 8 | 0.0 | 0.0 | 0.00 | 0.00 | 0.00 | 83 | 1011.1 | |
| 20260507024414 | 8 | 0.0 | 0.0 | 0.00 | 0.00 | 0.00 | 83 | 1011.1 | |
| 20260507023914 | 8 | 0.0 | 0.0 | 0.00 | 0.00 | 0.00 | 83 | 1011.2 | |
| 20260507023413 | 9 | 0.0 | 0.0 | 0.00 | 0.00 | 0.00 | 82 | 1011.1 | |
| 20260507022913 | 9 | 0.0 | 0.0 | 0.00 | 0.00 | 0.00 | 82 | 1011.1 | |
| 20260507022412 | 9 | 0.0 | 0.0 | 0.00 | 0.00 | 0.00 | 82 | 1011.0 | |
| 20260507021912 | 9 | 0.0 | 0.0 | 0.00 | 0.00 | 0.00 | 81 | 1011.0 | |
| 20260507021411 | 10 | 0.0 | 0.0 | 0.00 | 0.00 | 0.00 | 81 | 1010.9 | |
| 20260507020911 | 10 | 0.0 | 0.0 | 0.00 | 0.00 | 0.00 | 81 | 1010.9 | |
| 20260507020411 | 10 | 0.0 | 0.0 | 0.00 | 0.00 | 0.00 | 82 | 1011.0 | |
| 20260507015910 | 10 | 0.0 | 0.0 | 0.00 | 0.00 | 0.00 | 81 | 1010.9 | |
| 20260507015410 | 10 | 0.0 | 0.0 | 0.00 | 0.00 | 0.00 | 82 | 1010.9 | |
| 20260507014910 | 10 | 0.0 | 0.0 | 0.00 | 0.00 | 0.00 | 83 | 1010.8 | |
| 20260507014409 | 9 | 0.0 | 0.0 | 0.00 | 0.00 | 0.00 | 83 | 1010.7 | |
| 20260507013909 | 9 | 0.0 | 0.0 | 0.00 | 0.00 | 0.00 | 83 | 1010.8 | |
| 20260507013408 | 10 | 0.0 | 0.0 | 0.00 | 0.00 | 0.00 | 83 | 1010.6 | |
| 20260507012908 | 10 | 0.0 | 0.0 | 0.00 | 0.00 | 0.00 | 82 | 1010.7 | |
| 20260507012408 | 10 | 0.0 | 0.0 | 0.00 | 0.00 | 0.00 | 82 | 1010.6 | |
| 20260507011907 | 10 | 0.0 | 0.0 | 0.00 | 0.00 | 0.00 | 82 | 1010.5 | |
| 20260507011407 | 10 | 0.0 | 0.0 | 0.00 | 0.00 | 0.00 | 82 | 1010.5 | |
| 20260507010906 | 10 | 0.0 | 0.0 | 0.00 | 0.00 | 0.00 | 83 | 1010.5 | |
| 20260507010406 | 10 | 0.0 | 0.0 | 0.00 | 0.00 | 0.00 | 83 | 1010.6 | |
| 20260507005905 | 10 | 0.0 | 0.0 | 0.00 | 0.00 | 0.00 | 83 | 1010.5 | |
| 20260507005405 | 10 | 0.0 | 0.0 | 0.00 | 0.00 | 0.00 | 83 | 1010.6 | |
| 20260507004904 | 10 | 0.0 | 0.0 | 0.00 | 0.00 | 0.00 | 83 | 1010.6 | |
| 20260507004404 | 10 | 0.0 | 0.0 | 0.00 | 0.00 | 0.00 | 83 | 1010.6 | |
| 20260507003904 | 10 | 0.0 | 0.0 | 0.00 | 0.00 | 0.00 | 83 | 1010.6 | |
| 20260507003403 | 10 | 0.0 | 0.0 | 0.00 | 0.00 | 0.00 | 83 | 1010.5 | |
| 20260507002903 | 10 | 0.0 | 0.0 | 0.00 | 0.00 | 0.00 | 83 | 1010.5 | |
| 20260507002403 | 10 | 0.0 | 0.0 | 0.00 | 0.00 | 0.00 | 82 | 1010.5 | |
| 20260507001902 | 10 | 0.0 | 0.0 | 0.00 | 0.00 | 0.00 | 82 | 1010.5 | |
| 20260507001402 | 10 | 0.0 | 0.0 | 0.00 | 0.00 | 0.00 | 82 | 1010.4 | |
| 20260507000901 | 10 | 0.0 | 0.0 | 0.00 | 0.00 | 0.00 | 82 | 1010.5 | |
| 20260507000401 | 10 | 0.0 | 0.0 | 0.00 | 0.00 | 0.00 | 82 | 1010.5 | |
| 20260506235901 | 10 | 0.0 | 0.0 | 0.00 | 0.00 | 0.00 | 81 | 1010.5 | |
| 20260506235400 | 11 | 0.0 | 0.0 | 0.00 | 0.00 | 0.00 | 81 | 1010.5 | |
| 20260506234900 | 10 | 0.0 | 0.0 | 0.00 | 0.00 | 0.00 | 82 | 1010.5 | |
| 20260506234359 | 10 | 0.0 | 0.0 | 0.00 | 0.00 | 0.00 | 81 | 1010.5 | |
| 20260506233859 | 10 | 0.0 | 0.0 | 0.00 | 0.00 | 0.00 | 82 | 1010.6 | |
| 20260506233359 | 11 | 0.0 | 0.0 | 0.00 | 0.00 | 0.00 | 82 | 1010.6 | |
| 20260506232859 | 11 | 0.0 | 0.0 | 0.00 | 0.00 | 0.00 | 82 | 1010.7 | |
| 20260506232358 | 11 | 0.0 | 0.0 | 0.00 | 0.00 | 0.00 | 82 | 1010.6 | |
| 20260506231858 | 11 | 0.0 | 0.0 | 0.00 | 0.00 | 0.00 | 81 | 1010.5 | |
| 20260506231358 | 11 | 0.0 | 0.0 | 0.00 | 0.00 | 0.00 | 82 | 1010.5 | |
| 20260506230857 | 11 | 0.0 | 0.0 | 0.00 | 0.00 | 0.00 | 83 | 1010.4 | |
| 20260506230357 | 11 | 0.0 | 0.0 | 0.00 | 0.00 | 0.00 | 83 | 1010.4 | |
| 20260506225856 | 11 | 0.0 | 0.0 | 0.00 | 0.00 | 0.00 | 84 | 1010.5 | |
| 20260506225356 | 11 | 0.0 | 0.0 | 0.00 | 0.00 | 0.00 | 83 | 1010.5 | |
| 20260506224856 | 11 | 0.0 | 0.0 | 0.00 | 0.00 | 0.00 | 83 | 1010.4 | |
| 20260506224355 | 11 | 0.0 | 0.0 | 0.00 | 0.00 | 0.00 | 83 | 1010.4 | |
| 20260506223855 | 11 | 0.0 | 0.0 | 0.00 | 0.00 | 0.00 | 83 | 1010.3 | |
| 20260506223354 | 11 | 0.0 | 0.0 | 0.00 | 0.00 | 0.00 | 83 | 1010.3 | |
| 20260506222854 | 11 | 0.0 | 0.0 | 0.00 | 0.00 | 0.00 | 83 | 1010.3 | |
| 20260506222354 | 11 | 0.0 | 0.0 | 0.00 | 0.00 | 0.00 | 83 | 1010.2 | |
| 20260506221853 | 11 | 0.0 | 0.0 | 0.00 | 0.00 | 0.00 | 82 | 1010.2 | |
| 20260506221353 | 11 | 0.0 | 0.0 | 0.00 | 0.00 | 0.00 | 82 | 1010.1 | |
| 20260506220852 | 11 | 0.0 | 0.0 | 0.00 | 0.00 | 0.00 | 82 | 1010.1 | |
| 20260506220352 | 11 | 0.0 | 0.0 | 0.00 | 0.00 | 0.00 | 82 | 1010.1 | |
| 20260506215851 | 11 | 0.0 | 0.0 | 0.00 | 0.00 | 0.00 | 81 | 1010.0 | |
| 20260506215351 | 11 | 0.0 | 0.0 | 0.00 | 0.00 | 0.00 | 81 | 1010.0 | |
| 20260506214851 | 11 | 0.0 | 0.0 | 0.00 | 0.00 | 0.00 | 80 | 1010.0 | |
| 20260506214350 | 11 | 0.0 | 0.0 | 0.00 | 0.00 | 0.00 | 79 | 1009.9 | |
| 20260506213850 | 11 | 0.0 | 0.0 | 0.00 | 0.00 | 0.00 | 79 | 1009.8 | |
| 20260506213350 | 11 | 0.0 | 0.0 | 0.00 | 0.00 | 0.00 | 78 | 1009.8 | |
| 20260506212849 | 11 | 0.0 | 0.0 | 0.00 | 0.00 | 0.00 | 78 | 1009.8 | |
| 20260506212349 | 11 | 0.0 | 0.0 | 0.00 | 0.00 | 0.00 | 77 | 1009.8 | |
| 20260506211848 | 11 | 0.0 | 0.0 | 0.00 | 0.00 | 0.00 | 78 | 1009.8 | |
| 20260506211348 | 11 | 0.0 | 0.0 | 0.00 | 0.00 | 0.00 | 78 | 1009.8 | |
| 20260506210847 | 11 | 0.0 | 0.0 | 0.00 | 0.00 | 0.00 | 77 | 1009.5 | |
| 20260506210347 | 11 | 0.0 | 0.0 | 0.00 | 0.00 | 0.00 | 77 | 1009.5 | |
| 20260506205847 | 11 | 0.0 | 0.0 | 0.00 | 0.00 | 0.00 | 77 | 1009.4 | |
| 20260506205346 | 11 | 0.0 | 0.0 | 0.00 | 0.00 | 0.00 | 76 | 1009.3 | |
| 20260506204846 | 11 | 0.0 | 0.0 | 0.00 | 0.00 | 0.00 | 77 | 1009.4 | |
| 20260506204346 | 11 | 0.0 | 0.0 | 0.00 | 0.00 | 0.00 | 76 | 1009.5 | |
| 20260506203845 | 11 | 0.0 | 0.0 | 0.00 | 0.00 | 0.00 | 76 | 1009.4 | |
| 20260506203344 | 11 | 0.0 | 0.0 | 0.00 | 0.00 | 0.00 | 77 | 1009.5 | |
| 20260506202844 | 11 | 0.0 | 0.0 | 0.00 | 0.00 | 0.00 | 78 | 1009.4 | |
| 20260506202344 | 11 | 0.0 | 0.0 | 0.00 | 0.00 | 0.00 | 79 | 1009.4 | |
| 20260506201844 | 10 | 0.0 | 0.0 | 0.00 | 0.00 | 0.00 | 79 | 1009.3 | |
| 20260506201343 | 10 | 0.0 | 0.0 | 0.00 | 0.00 | 0.00 | 79 | 1009.3 | |
| 20260506200843 | 10 | 0.0 | 0.0 | 0.00 | 0.00 | 0.00 | 79 | 1009.3 | |
| 20260506200342 | 11 | 0.0 | 0.0 | 0.00 | 0.00 | 0.00 | 79 | 1009.2 | |
| 20260506195842 | 11 | 0.0 | 0.0 | 0.00 | 0.00 | 0.00 | 79 | 1009.1 | |
| 20260506195342 | 11 | 0.0 | 0.0 | 0.00 | 0.00 | 0.00 | 78 | 1009.0 | |
| 20260506194842 | 11 | 0.0 | 0.0 | 0.00 | 0.00 | 0.00 | 77 | 1008.9 | |
| 20260506194341 | 11 | 0.0 | 0.0 | 0.00 | 0.00 | 0.00 | 76 | 1008.8 | |
| 20260506193841 | 11 | 0.0 | 0.0 | 0.00 | 0.00 | 0.00 | 76 | 1008.8 | |
| 20260506193340 | 11 | 0.0 | 0.0 | 0.00 | 0.00 | 0.00 | 75 | 1008.5 | |
| 20260506192840 | 12 | 0.0 | 0.0 | 0.00 | 0.00 | 0.00 | 73 | 1008.4 | |
| 20260506192339 | 12 | 0.0 | 0.0 | 0.00 | 0.00 | 0.00 | 72 | 1008.2 | |
| 20260506191839 | 12 | 0.0 | 0.0 | 0.00 | 0.00 | 0.00 | 73 | 1008.0 | |
| 20260506191339 | 12 | 0.0 | 0.0 | 0.00 | 0.00 | 0.00 | 74 | 1008.0 | |
| 20260506190839 | 12 | 0.0 | 0.0 | 0.00 | 0.00 | 0.00 | 74 | 1008.0 | |
| 20260506190338 | 13 | 0.0 | 0.0 | 0.00 | 0.00 | 0.00 | 75 | 1008.0 | |
| 20260506185837 | 13 | 0.0 | 0.0 | 0.00 | 0.00 | 0.00 | 74 | 1008.1 | |
| 20260506185337 | 13 | 0.0 | 0.0 | 0.00 | 0.00 | 0.00 | 73 | 1007.6 | |
| 20260506184837 | 13 | 0.0 | 0.0 | 0.00 | 0.00 | 0.00 | 74 | 1007.4 | |
| 20260506184336 | 13 | 0.0 | 0.0 | 0.00 | 0.00 | 0.00 | 74 | 1007.5 | |
| 20260506183835 | 13 | 0.0 | 0.0 | 0.00 | 0.00 | 0.00 | 71 | 1007.4 | |
| 20260506183335 | 14 | 0.0 | 0.0 | 0.00 | 0.00 | 0.00 | 65 | 1007.6 | |
| 20260506182835 | 14 | 0.0 | 0.0 | 0.00 | 0.00 | 0.00 | 63 | 1007.4 | |
| 20260506182334 | 15 | 0.0 | 0.0 | 0.00 | 0.00 | 0.00 | 60 | 1007.4 | |
| 20260506181834 | 16 | 0.0 | 0.0 | 0.00 | 0.00 | 0.00 | 62 | 1007.4 | |
| 20260506181333 | 16 | 0.0 | 0.0 | 0.00 | 0.00 | 0.00 | 61 | 1007.1 | |
| 20260506180833 | 16 | 0.0 | 0.0 | 0.00 | 0.00 | 0.00 | 60 | 1007.0 | |
| 20260506180333 | 16 | 0.0 | 0.0 | 0.00 | 0.00 | 0.00 | 59 | 1006.8 | |
| 20260506175832 | 17 | 0.0 | 0.0 | 0.00 | 0.00 | 0.00 | 57 | 1006.5 |